STARLINK-37240, 69031

Orbit data source: Space-Track

STARLINK-37240, 69031 is a payload satellite owned by SpaceX/Seattle (US) in SSO that was launched on Wed, 06 May 2026 UTC via an FALCON 9 launch vehicle from the Air Force Western Test Range (AFWTR). Payload-class satellites include a variety of spacecraft equipped with specific instruments for various scientific and technological missions. These include communications satellites like Starlink; space stations such as the ISS; scientific satellites like the Hubble; Earth observation satellites from companies like Planet Labs, Umbra, and HawkEye 360; GPS; miniature CubeSats for education and research; and military/defense satellites.

Loading next visibility...
Identifier
69031, 2026-101G
Orbit
SSO
Country
Flag of USUS
Related business
Manufacturer
SpaceX/Seattle
Mission
Operational Commercial Communications
Bus & Motor
STARLINK V2MO, Unknown motor
Mass
575 kg wet, ~530 kg dry
Launch date (UTC)
2026-05-06 (3 months ago)
Launch vehicle
FALCON 9
Launch site
Air Force Western Test Range (AFWTR)
Object type
Payload
Rocket body
Debris
Shape & HBR
Box + 2 Pan, 17.7 m
Radar Cross Section
36.964 m², Large (>1 m²)

Expand to show TLE details & history
Last TLE update: 15 hours ago

TLE from 15 hours ago
0 STARLINK-37240
1 69031U 26101G   26206.54747315  .00019505  00000-0  60500-3 0  9995
2 69031  97.2857  60.8817 0001740  93.6900 266.4542 15.33441958 12452
Epoch: 2026-07-25T13:08Z
TLE epoch observation values (Epoch: 2026-07-25T13:08:21.680Z)
Latitude
0.00002°
Longitude
-79.46682°
Altitude
468.738 km
Speed
7.632 km/s
True Right ascension
04h 03m 31s
True Declination
0° 00' 00"
Sunlit
Object was in daylight at epoch
Visualization orbit readout
Latitude
Unknown
Longitude
Unknown
Altitude
Unknown
Speed
Unknown
Apparent Right ascension
Unknown
Apparent Declination
Unknown
Sunlit
N/A
Visualization observer readout
Local Sidereal Time
17:02:07
Azimuth
Unknown
Elevation
Unknown
Doppler factor
Unknown
Orbital elements
Apogee altitude
463.685 km
Perigee altitude
461.305 km
Semi-major axis
6,840.632 km
Eccentricity
0.00017
Inclination
97.2857°
RAAN
60.8817°
Arg. of periapsis
93.69°
True anomaly
266.4343°
Mean anomaly
266.4542°
Eccentric anomaly
266.44425°
Mean motion
3.83618 °/min
Orbital period
93.84 mins
BSTAR
0.000605
Loading maneuver chart data...
Computing Atmospheric mass density...
Loading historical data...
Loading historical data...
Loading historical data...
Loading historical data...
Loading historical data...
Loading historical data...
Loading historical data...

Documentation

Showing up to 5 results
|